KTXEAGLE7 Weather Reports


Display with metric or nautical units.
time (UTC)temp
F
wind
direction
speed
MPH
gust
MPH
rain 1hr
in
rain 24hr
in
rain mn
in
humidity
%
barometer
mb
20260903144518 84 218 10.0 19.0 0.00 0.00 0.00 89 1014.6
20260903143003 83 182 8.0 18.0 0.00 0.00 0.00 91 1014.8
20260903141601 83 196 7.0 14.0 0.00 0.00 0.00 92 1014.9
20260903140059 82 178 4.0 9.0 0.00 0.00 0.00 94 1014.9
20260903134559 81 173 2.0 5.0 0.00 0.00 0.00 95 1014.8
20260903133101 81 159 3.0 6.0 0.00 0.00 0.00 95 1014.6
20260903131556 80 167 1.0 6.0 0.00 0.00 0.00 96 1014.5
20260903130055 80 168 2.0 6.0 0.00 0.00 0.00 96 1014.4
20260903124606 80 174 1.0 4.0 0.00 0.00 0.00 96 1014.3
20260903123055 80 169 1.0 4.0 0.00 0.00 0.00 96 1014.1
20260903121600 80 158 2.0 7.0 0.00 0.00 0.00 96 1014.1
20260903120101 79 156 3.0 8.0 0.00 0.00 0.00 96 1014.0
20260903114552 79 145 3.0 8.0 0.00 0.00 0.00 96 1014.0
20260903113130 79 143 2.0 5.0 0.00 0.00 0.00 96 1014.0
20260903111552 79 144 2.0 4.0 0.00 0.00 0.00 96 1014.0
20260903110056 80 144 1.0 3.0 0.00 0.00 0.00 96 1014.1
20260903104601 80 160 1.0 3.0 0.00 0.00 0.00 96 1014.0
20260903103049 80 153 1.0 3.0 0.00 0.00 0.00 96 1014.0
20260903101550 79 167 0.0 3.0 0.00 0.00 0.00 96 1013.8
20260903100048 79 179 1.0 4.0 0.00 0.00 0.00 96 1013.6
20260903094552 79 169 0.0 3.0 0.00 0.00 0.00 96 1013.6
20260903093046 79 175 2.0 5.0 0.00 0.00 0.00 96 1013.6
20260903091550 80 169 1.0 5.0 0.00 0.00 0.00 96 1013.7
20260903090047 80 170 2.0 6.0 0.00 0.00 0.00 96 1013.6
20260903084543 80 163 3.0 5.0 0.00 0.00 0.00 96 1013.8
20260903083042 80 161 2.0 5.0 0.00 0.00 0.00 96 1013.9
20260903081541 80 150 2.0 6.0 0.00 0.00 0.00 95 1013.8
20260903080039 80 134 5.0 9.0 0.00 0.00 0.00 95 1013.7
20260903074541 80 148 4.0 8.0 0.00 0.00 0.00 95 1013.7
20260903073037 80 136 4.0 9.0 0.00 0.00 0.00 94 1013.7
20260903071545 80 147 5.0 9.0 0.00 0.00 0.00 94 1013.7
20260903070034 81 109 4.0 7.0 0.00 0.00 0.00 94 1014.1
20260903064532 81 129 3.0 7.0 0.00 0.00 0.00 93 1014.1
20260903063031 81 139 5.0 9.0 0.00 0.00 0.00 93 1014.0
20260903061528 81 121 4.0 7.0 0.00 0.00 0.00 92 1014.1
20260903060026 81 126 3.0 6.0 0.00 0.00 0.00 91 1014.4
20260903054524 81 88 4.0 7.0 0.00 0.00 0.00 91 1014.6
20260903053023 82 84 3.0 6.0 0.00 0.00 0.00 90 1014.7
20260903051539 82 84 3.0 5.0 0.00 0.00 0.00 90 1014.8
20260903050016 82 82 3.0 4.0 0.00 0.00 0.00 89 1014.9
20260903044519 82 337 1.0 3.0 0.00 0.00 0.00 89 1015.5
20260903043035 82 328 0.0 4.0 0.00 0.00 0.00 89 1015.4
20260903041520 82 45 0.0 5.0 0.00 0.00 0.00 89 1015.3
20260903040017 82 137 0.0 8.0 0.00 0.00 0.00 88 1014.8
20260903034523 82 154 4.0 9.0 0.00 0.00 0.00 88 1014.2
20260903033018 82 155 4.0 8.0 0.00 0.00 0.00 88 1014.2
20260903031515 82 134 5.0 12.0 0.00 0.00 0.00 88 1014.3
20260903030013 83 162 4.0 11.0 0.00 0.00 0.00 87 1014.0
20260903024513 83 147 6.0 15.0 0.00 0.00 0.00 86 1013.4
20260903023012 83 163 7.0 15.0 0.00 0.00 0.00 84 1013.2
20260903021514 84 168 9.0 17.0 0.00 0.00 0.00 83 1012.9
20260903020013 84 171 8.0 14.0 0.00 0.00 0.00 82 1012.7
20260903014517 85 161 7.0 12.0 0.00 0.00 0.00 79 1012.6
20260903013010 86 165 9.0 17.0 0.00 0.00 0.00 77 1012.5
20260903011514 87 171 6.0 15.0 0.00 0.00 0.00 73 1012.5
20260903010009 87 163 8.0 13.0 0.00 0.00 0.00 68 1012.2
20260903004509 88 177 9.0 17.0 0.00 0.00 0.00 64 1012.1
20260903003011 88 172 9.0 20.0 0.00 0.00 0.00 63 1011.9
20260903001509 89 171 10.0 19.0 0.00 0.00 0.00 64 1011.7
20260903000110 90 176 13.0 21.0 0.00 0.00 0.00 65 1011.5
20260902234505 91 173 11.0 16.0 0.00 0.00 0.00 66 1011.6
20260902233005 91 171 14.0 20.0 0.00 0.00 0.00 67 1011.5
20260902231504 91 180 14.0 21.0 0.00 0.00 0.00 67 1011.5
20260902230002 92 188 11.0 20.0 0.00 0.00 0.00 67 1011.4
20260902224503 94 142 12.0 21.0 0.00 0.00 0.00 62 1011.2
20260902223004 95 161 5.0 10.0 0.00 0.00 0.00 56 1011.4
20260902221605 96 173 7.0 12.0 0.00 0.00 0.00 56 1011.2
20260902220059 95 176 6.0 10.0 0.00 0.00 0.00 57 1011.2
20260902214601 95 153 4.0 8.0 0.00 0.00 0.00 53 1011.4
20260902213102 95 189 5.0 10.0 0.00 0.00 0.00 55 1011.6
20260902211557 96 160 6.0 10.0 0.00 0.00 0.00 50 1011.6
20260902210052 96 196 5.0 10.0 0.00 0.00 0.00 54 1011.7
20260902204550 96 145 7.0 12.0 0.00 0.00 0.00 54 1011.9
20260902203048 96 166 6.0 15.0 0.00 0.00 0.00 54 1012.0
20260902201601 96 217 6.0 13.0 0.00 0.00 0.00 52 1012.3
20260902200057 96 175 8.0 15.0 0.00 0.00 0.00 53 1012.6
20260902194539 96 194 9.0 13.0 0.00 0.00 0.00 53 1013.0
20260902193035 95 180 8.0 14.0 0.00 0.00 0.00 58 1013.3
20260902191536 94 206 6.0 10.0 0.00 0.00 0.00 60 1013.5
20260902190046 94 159 6.0 12.0 0.00 0.00 0.00 56 1013.6
20260902184531 93 240 8.0 11.0 0.00 0.00 0.00 57 1014.0
20260902183026 93 182 7.0 13.0 0.00 0.00 0.00 60 1014.2
20260902181525 92 216 8.0 15.0 0.00 0.00 0.00 63 1014.4
20260902180020 91 215 7.0 14.0 0.00 0.00 0.00 65 1014.7
20260902174518 91 229 9.0 14.0 0.00 0.00 0.00 65 1015.1
20260902173015 90 224 8.0 17.0 0.00 0.00 0.00 70 1015.3
20260902171514 89 221 9.0 16.0 0.00 0.00 0.00 73 1015.6
20260902170011 89 261 7.0 16.0 0.00 0.00 0.00 72 1015.8
20260902164515 89 201 12.0 17.0 0.00 0.00 0.00 74 1016.1
20260902163010 88 196 11.0 17.0 0.00 0.00 0.00 76 1016.1
20260902161508 86 218 11.0 19.0 0.00 0.00 0.00 79 1016.0
20260902160002 86 239 10.0 16.0 0.00 0.00 0.00 81 1016.2
20260902154605 85 223 11.0 15.0 0.00 0.00 0.00 83 1016.1
20260902153059 85 205 9.0 17.0 0.00 0.00 0.00 84 1016.1
20260902151557 83 225 10.0 15.0 0.00 0.00 0.00 87 1016.0
20260902150052 83 223 11.0 15.0 0.00 0.00 0.00 88 1016.1